You are not logged in, Click here to log in
仁川國際機場ICN / RKSI 韓國首都首爾
ICAO: RKSI Country: 韓國首都首爾
Latitude: 37.4602 Longitude: 126.441
Total Arrivals: 61 Total Departures: 55
Latest Arrival: BR2150 (RCTP-RKSI)Ivan. Lee Latest Departure: OZ114 (RKSI-RJBB)Ivan. Lee
Scenery:
METAR : RKSI 190330Z 14007KT 9999 BKN025 03/M05 Q1030 NOSIG

仁川國際機場ICN

You are accessing this site from IP address 35.175.113.29. Virtual Airline. CMS by phpVMS.Website designed by Zumeweb and edited by Theo Bearman.
There is 0 User(s) Online: | and 10 Guest(s) Online.
All information on this site is for fight simulation purposes only. This site is for flight logging for pilots of Virtual Airline&模擬飛行論壇 FlySim only.